Regional Weather Roundup
Issued by NWS Sterling, VA

Home | Current Version | Previous Version | Graphics & Text | Print | Product List | Glossary On
Versions: 1 2 3 4 5 6 7 8 9 10 11 12 13 14 15 16 17 18 19 20 21 22 23 24 25 26 27 28 29 30 31 32 33 34 35 36 37 38 39 40 41 42 43 44 45 46 47 48 49 50
532
ASUS41 KLWX 271711
RWRLWX

REGIONAL WEATHER ROUNDUP
NATIONAL WEATHER SERVICE BALTIMORE MD/WASHINGTON DC
100 PM EDT SUN MAY 27 2018

Note: "FAIR" indicates few or no clouds below 12,000 feet
with no significant weather and/or obstructions to visibility.
 TC=TEMPERATURE CELSIUS

 * =Non NWS site. Station does not report precipitation (e.g. rain,
    snow, etc.), thunder, or fog.

DCZ001-MDZ009-015-VAZ040>042-051-053>054-271800-
WASHINGTON METRO

CITY           SKY/WX    TMP DP  RH WIND       PRES   REMARKS
WASHINGTON NAT PTSUNNY   84  73  69 S8        29.93F HX  90
DULLES         PTSUNNY   86  68  54 NW6       29.93F
ANDREWS AFB    FAIR      83  71  66 SE3       29.93F
FT BELVOIR     FAIR      84  73  68 SE9       29.93F HX  90
QUANTICO       FAIR      81  76  84 S8        29.94F
COLLEGE PARK*  FAIR      83  71  64 N3        29.92F
LEESBURG*      CLOUDY    86  70  58 CALM      29.94F HX  90
MANASSAS*      FAIR      85  74  69 VRB6      29.94F HX  92
GAITHERSBURG*  FAIR      86  70  58 CALM      29.95F HX  90

$$

MDZ006>007-011-014-271800-
BALTIMORE METRO

CITY           SKY/WX    TMP DP  RH WIND       PRES   REMARKS
BWI AIRPORT    PTSUNNY   83  71  67 CALM      29.92F
MD SCIENCE CTR   N/A     85  73  67 MISG      29.92F HX  91
MARTIN STATE   PTSUNNY   82  77  83 SE7       29.94F HX  91
ANNAPOLIS      FAIR     N/A N/A N/A SE10      29.93F
FORT MEADE*    FAIR      82  72  69 S5        29.95S

$$

MDZ012-015-019>023-271800-
MARYLAND EASTERN SHORE

CITY           SKY/WX    TMP DP  RH WIND       PRES   REMARKS
OCEAN CITY     CLOUDY    79  74  84 W8        29.96R
SALISBURY      CLOUDY    81  73  76 SW10      29.95S
BAY BRIDGE AP* PTSUNNY   84  73  70 SE5       29.94S HX  91
CAMBRIDGE*     CLOUDY    81  72  74 SW7       29.95S
EASTON*        PTSUNNY   81  72  74 NW5       29.98S

$$

MDZ017>025-271800-
SOUTHERN MARYLAND

CITY           SKY/WX    TMP DP  RH WIND       PRES   REMARKS
PATUXENT RIVER PTSUNNY   86  72  62 SW5       29.94S HX  92
ST INIGOES     PTSUNNY   82  74  76 S7        29.94S
LEONARDTOWN*   PTSUNNY   81  70  69 W7        29.96S

$$

MDZ003>005-271800-
NORTH CENTRAL MARYLAND

CITY           SKY/WX    TMP DP  RH WIND       PRES   REMARKS
FREDERICK*     PTSUNNY   86  66  51 CALM      29.95F
HAGERSTOWN APT FAIR      83  68  60 CALM      29.93F
WESTMINSTER*   PTSUNNY   84  70  61 NE3       29.95S

$$

MDZ501>502-271800-
WESTERN MARYLAND

CITY           SKY/WX    TMP DP  RH WIND       PRES   REMARKS
OAKLAND*       FAIR      72  64  78 SW8       30.04S
CUMBERLAND*    FAIR      82  72  69 S7        29.96F

$$

VAZ025>031-271800-
SHENANDOAH VALLEY

CITY           SKY/WX    TMP DP  RH WIND       PRES   REMARKS
WINCHESTER*    DRIZZLE   77  68  73 SE5       29.96F
FRONT ROYAL*   FAIR      82  72  69 CALM      29.94S
LURAY*         FAIR      86  68  54 S5        29.95F
NEW MARKET*    CLOUDY    83  66  55 NW7       29.93S
STAUNTON*      FAIR      83  67  59 S3        29.98F
WAYNESBORO*    FAIR      83  67  58 CALM      29.99F

$$

WVZ021-048>050-054>055-271800-
EASTERN WEST VIRGINIA PANHANDLE

CITY           SKY/WX    TMP DP  RH WIND       PRES   REMARKS
MARTINSBURG    FAIR      83  68  60 CALM      29.92F
PETERSBURG*    FAIR      81  69  66 SE3       29.93F

$$

VAZ036>039-050-271800-
CENTRAL FOOTHILLS

CITY           SKY/WX    TMP DP  RH WIND       PRES   REMARKS
CHARLOTTESVILL FAIR      86  71  60 S8        29.95S HX  91
CULPEPER*      FAIR      84  70  61 CALM      29.95S
ORANGE*        PTSUNNY   82  72  69 SE6       29.95S
GORDONSVILLE*  FAIR      84  74  71 S3        29.95S HAZE    HX  90
WARRENTON*     FAIR      86  71  59 S7        29.93F HX  91

$$

VAZ055>057-271800-
NORTH AND CENTRAL PIEDMONT

CITY           SKY/WX    TMP DP  RH WIND       PRES   REMARKS
FREDERICKSBRG* PTSUNNY   83  72  68 SW6       29.93F
STAFFORD*      FAIR      84  74  72 CALM      29.98F HX  91

$$

NCZ024-NYZ072-PAZ021-071-VAZ022-071-271800-
OTHER REGIONAL OBSERVATIONS

CITY           SKY/WX    TMP DP  RH WIND       PRES   REMARKS
NEW YORK CITY  CLOUDY    62  59  90 NE8G16    30.06R
PHILADELPHIA   CLOUDY    68  64  87 NE13      29.98R
PITTSBURGH     CLOUDY    74  68  81 SW3       29.96S
ROANOKE        PTSUNNY   84  69  60 SE12      29.99F THUNDER
RICHMOND       PTSUNNY   84  72  67 SW12      29.95F
RALEIGH        PTSUNNY   83  73  72 SW13      30.01F

$$

ANZ530>537-271800-
MARINE OBSERVATIONS

STATION/POSITION TIME  TEMP    WIND        PRES
                       AIR SEA DIR/SP/G
                 (UTC) (F)     (DEG/KT/KT) (MB)
THOMAS PT LIGHT  1700   75 71  150/ 10/ 11 1014.5F
BALT KEY BRIDGE  1636   76     130/ 10/ 12 1013.3F
COVE POINT       1636   81     290/  3/  5 1014.6F
LEWISETTA        1636   79 75  250/  8/ 10 1014.3R
SOLOMONS ISLAND  1636   81 72  200/  1/  5 1013.7F
PINEY POINT      1636          310/  5/  5   N/A

$$





USA.gov is the U.S. government's official web portal to all federal, state and local government web resources and services.